Weather observations for the past three days for
Barksdale Air Force Base
Imperial (Metric)
Date Time (cdt) Wind (mph) Vis. (mi.) Weather Sky Cond. Temperature (ºF) Relative Humidity Wind Chill (°F) Heat Index (°F) Pressure Precipitation (in)
Air Dwpt 6 hour altimeter (in) sea level (mb) 1 hr 3 hr 6 hr
Max. Min.
05 02:55 SE 6 10.00 Mostly Cloudy BKN230 79 73.2 83% 82 29.92 1013.4
05 01:55 SE 3 10.00 Mostly Cloudy BKN220 80.1 73.2 80% 84 29.92 1013.4
05 00:55 SE 3 10.00 Mostly Cloudy BKN220 81.3 73 94.8 81.3 76% 86 29.91 1013.0
04 23:55 SE 7 10.00 Overcast OVC220 82.9 72.5 71% 88 29.92 1013.4
04 22:55 SE 7 10.00 Partly Cloudy SCT210 83.7 72 68% 89 29.93 1013.7
04 21:55 SE 8 10.00 Fair CLR 84.6 72 66% 90 29.93 1013.7
04 20:55 SE 6 10.00 Fair CLR 86.7 71.1 60% 92 29.9 1012.7
04 19:55 E 3 10.00 Fair CLR 89.2 70.3 54% 95 29.88 1012.0
04 18:55 SE 7 10.00 Fair CLR 95 68.2 99.1 92.5 42% 100 29.88 1012.0
04 17:55 E 6 10.00 Fair CLR 97.5 67.5 38% 102 29.86 1011.3
04 16:55 E 5 10.00 Fair CLR 98.6 67.6 37% 104 29.87 1011.7
04 15:55 SE 8 10.00 Partly Cloudy SCT055 97.7 70 41% 105 29.89 1012.3
04 14:55 E 6 10.00 Partly Cloudy SCT050 95.9 71.1 45% 104 29.91 1013.0
04 13:55 E 6 10.00 Mostly Cloudy SCT049 BKN065 BKN080 93.9 71.8 49% 102 29.94 1014.1
04 12:55 Calm 10.00 A Few Clouds FEW049 95.2 71.1 95.2 75.2 46% 103 29.96 1014.7
04 11:55 E 5 10.00 Fair CLR 92.5 72.1 52% 100 29.98 1015.4
04 10:55 NE 5 10.00 A Few Clouds FEW032 90.9 72.9 56% 99 29.99 1015.7
04 09:55 Calm 10.00 Fair CLR 87.3 73.6 64% 95 29.99 1015.7
04 08:55 E 3 10.00 Fair CLR 83.7 74.8 75% 91 29.99 1015.8
04 07:55 Calm 10.00 Fair CLR 78.6 75.4 90% 82 29.98 1015.4
04 06:55 Calm 10.00 Fair CLR 75.2 72.7 78.8 75.2 92% 74 29.96 1014.8
04 05:55 S 3 10.00 Fair CLR 75.4 72.5 91% 75 29.95 1014.4
04 04:55 SE 3 10.00 Fair CLR 75.6 73 92% 75 29.95 1014.4
04 03:55 SE 3 10.00 Fair CLR 76.3 73 90% 77 29.94 1014.1
04 02:55 SE 3 10.00 Fair CLR 77.9 73.9 88% 80 29.93 1013.7
04 01:55 Calm 10.00 Fair CLR 77.9 73.6 87% 80 29.93 1013.7
04 00:55 SE 5 10.00 Fair CLR 78.4 73.8 89.8 78.4 86% 81 29.92 1013.4
03 23:55 SE 5 10.00 Fair CLR 79.3 74.3 85% 83 29.92 1013.4
03 22:55 SE 3 10.00 Fair CLR 82.2 75 79% 89 29.91 1013.0
03 21:55 S 5 10.00 Fair CLR 82.4 74.8 78% 89 29.91 1013.0
03 20:55 E 6 10.00 Fair CLR 82.9 73.8 74% 89 29.91 1013.1
03 19:55 SE 5 10.00 Fair CLR 84.7 72.9 68% 91 29.89 1012.4
03 18:55 S 7 10.00 Fair CLR 89.8 71.4 98.1 89.2 55% 96 29.88 1012.0
03 17:55 S 14 10.00 Fair CLR 91.4 71.2 52% 98 29.89 1012.4
03 16:55 SE 12 10.00 A Few Clouds FEW110 92.8 72.5 52% 101 29.9 1012.7
03 15:55 SE 14 10.00 Thunderstorm in Vicinity FEW043 SCT130 93.2 73.9 54% 103 29.91 1013.0
03 14:55 SE 9 10.00 Thunderstorm in Vicinity FEW050 97 70.7 43% 105 29.92 1013.4
03 13:55 S 7 10.00 Fair CLR 95.9 69.6 43% 102 29.94 1014.0
03 12:55 SE 7 10.00 Fair CLR 94.5 71.1 94.5 75 47% 102 29.96 1014.7
03 11:55 S 8 10.00 Partly Cloudy FEW028 SCT070 91.4 72.3 54% 99 29.98 1015.4
03 10:55 S 3 10.00 Fair CLR 89.6 75.2 63% 100 29.99 1015.8
03 09:55 S 5 10.00 Mostly Cloudy SCT013 BKN019 BKN026 85.6 76.3 74% 96 29.99 1015.8
03 08:55 SE 5 10.00 Fair CLR 82.6 76.1 81% 90 30 1016.1
03 07:55 Calm 10.00 Fair CLR 78.6 75.7 91% 82 30 1016.1
03 06:55 Calm 6.00 Fog/Mist CLR 74.8 73.2 77.5 74.3 95% 29.98 1015.4
03 05:55 Calm 8.00 Fair CLR 75.4 73.4 94% 74 29.97 1015.1
03 04:55 E 3 10.00 Fair CLR 76.1 73.6 92% 76 29.96 1014.8
03 03:55 SE 3 10.00 Fair CLR 77.2 73.9 90% 79 29.96 1014.8
03 02:55 Calm 10.00 Fair CLR 77 73.8 90% 78 29.96 1014.8
03 01:55 SE 5 10.00 Fair CLR 77 73.8 90% 78 29.95 1014.4
03 00:55 SE 5 10.00 Fair CLR 77.2 73.9 86.4 77.2 90% 79 29.95 1014.4
02 23:55 SE 6 10.00 Fair CLR 77.7 74.1 89% 80 29.95 1014.4
02 22:55 SE 7 10.00 Fair CLR 79.3 75.4 88% 84 29.96 1014.7
02 21:55 SE 6 10.00 A Few Clouds FEW160 78.8 75.2 89% 82 29.96 1014.7
02 20:55 SE 3 10.00 Fair CLR 81.1 75.7 84% 88 29.95 1014.4
02 19:55 SE 6 10.00 Fair CLR 82.9 75.4 78% 91 29.94 1014.1
02 18:55 SE 9 10.00 Fair CLR 86.5 75 90.1 84 69% 96 29.94 1014.1
02 17:55 SE 8 10.00 Fair CLR 87.3 74.8 67% 97 29.94 1014.1
02 16:55 E 10 10.00 Fair CLR 88.3 75.4 66% 99 29.94 1014.1
02 15:55 E 8 10.00 A Few Clouds FEW200 88 75.6 67% 98 29.95 1014.4
02 14:55 E 10 10.00 Partly Cloudy FEW039 SCT170 SCT210 85.5 75.7 73% 95 29.98 1015.4
02 13:55 S 3 10.00 Thunderstorm in Vicinity FEW200 87.3 73 63% 95 29.99 1015.8
02 12:55 S 8 10.00 Thunderstorm Light Rain SCT018 BKN060 BKN200 84 75.2 92.3 76.5 75% 92 30 1016.1
02 11:55 S 13 10.00 A Few Clouds FEW070 FEW180 91 74.1 58% 101 30.01 1016.4
02 10:55 S 13 10.00 Mostly Cloudy SCT025 BKN030 BKN200 89.8 75.4 63% 101 30.02 1016.8
02 09:55 SE 9 10.00 Partly Cloudy SCT019 88 76.5 69% 99 30.01 1016.4
02 08:55 SE 9 10.00 Fair CLR 84.2 75.7 76% 93 30 1016.1
02 07:55 SE 6 10.00 Fair CLR 79.9 75.6 87% 85 30.01 1016.4
02 06:55 Calm 10.00 Fair CLR 76.3 73.4 80.1 76.1 91% 77 30 1016.1
02 05:55 E 5 10.00 Fair CLR 76.6 73.4 90% 77 29.99 1015.7
02 04:55 E 5 10.00 Fair CLR 77 73.4 89% 78 29.98 1015.4
Date Time (cdt) Wind (mph) Vis. (mi.) Weather Sky Cond. Air Dwpt Max. Min. Relative Humidity Wind Chill (°F) Heat Index (°F) altimeter (in) sea level (mb) 1 hr 3 hr 6 hr
6 hour
Temperature (ºF) Pressure Precipitation (in)